Location: *
(49.9853°N, 3.5569°E)
Time: 12:41:11
(UTC+00:00)

Cosmos 1461 - Pass Details

Date: 22 September 2019
Orbit: 525 x 642 km, 65.0° (Epoch: 15 October)

Event Time Altitude Azimuth Distance (km) Brightness Sun altitude
Rises 18:31:43 0° 234° (SW) 2,677 7.1 -8.3°
Reaches altitude 10° 18:33:58 10° 241° (WSW) 1,780 6.2 -8.7°
Maximum altitude 18:37:49 47° 316° (NW) 705 3.8 -9.3°
Drops below altitude 10° 18:41:39 10° 31° (NNE) 1,777 5.2 -9.9°
Sets 18:43:55 0° 38° (NE) 2,672 6.1 -10.3°
